Year,Month,Day,Hour,Minute,Value (Times are PST for temperature in C)
2011,08,02,00,00,17.00
2011,08,02,00,01,17.00
2011,08,02,00,02,16.90
2011,08,02,00,03,16.90
2011,08,02,00,04,16.80
2011,08,02,00,05,16.80
2011,08,02,00,06,16.70
2011,08,02,00,07,16.70
2011,08,02,00,08,16.70
2011,08,02,00,09,16.60
2011,08,02,00,10,16.60
2011,08,02,00,11,16.50
2011,08,02,00,12,16.40
2011,08,02,00,13,16.40
2011,08,02,00,14,16.40
2011,08,02,00,15,16.30
2011,08,02,00,16,16.30
2011,08,02,00,17,16.20
2011,08,02,00,18,16.20
2011,08,02,00,19,16.20
2011,08,02,00,20,16.10
2011,08,02,00,21,16.10
2011,08,02,00,22,16.10
2011,08,02,00,23,16.10
2011,08,02,00,24,16.00
2011,08,02,00,25,15.90
2011,08,02,00,26,15.90
2011,08,02,00,27,15.80
2011,08,02,00,28,15.80
2011,08,02,00,29,15.80
2011,08,02,00,30,15.80
2011,08,02,00,31,15.80
2011,08,02,00,32,15.70
2011,08,02,00,33,15.70
2011,08,02,00,34,15.70
2011,08,02,00,35,15.60
2011,08,02,00,36,15.60
2011,08,02,00,37,15.60
2011,08,02,00,38,15.60
2011,08,02,00,39,15.60
2011,08,02,00,40,15.60
2011,08,02,00,41,15.50
2011,08,02,00,42,15.50
2011,08,02,00,43,15.50
2011,08,02,00,44,15.50
2011,08,02,00,45,15.50
2011,08,02,00,46,15.40
2011,08,02,00,47,15.40
2011,08,02,00,48,15.40
2011,08,02,00,49,15.40
2011,08,02,00,50,15.30
2011,08,02,00,51,15.30
2011,08,02,00,52,15.30
2011,08,02,00,53,15.30
2011,08,02,00,54,15.30
2011,08,02,00,55,15.30
2011,08,02,00,56,15.30
2011,08,02,00,57,15.30
2011,08,02,00,58,15.30
2011,08,02,00,59,15.30
2011,08,02,01,00,15.30
2011,08,02,01,01,15.30
2011,08,02,01,02,15.30
2011,08,02,01,03,15.30
2011,08,02,01,04,15.30
2011,08,02,01,05,15.30
2011,08,02,01,06,15.30
2011,08,02,01,07,15.30
2011,08,02,01,08,15.30
2011,08,02,01,09,15.30
2011,08,02,01,10,15.30
2011,08,02,01,11,15.30
2011,08,02,01,12,15.30
2011,08,02,01,13,15.30
2011,08,02,01,14,15.30
2011,08,02,01,15,15.30
2011,08,02,01,16,15.20
2011,08,02,01,17,15.20
2011,08,02,01,18,15.20
2011,08,02,01,19,15.20
2011,08,02,01,20,15.20
2011,08,02,01,21,15.20
2011,08,02,01,22,15.20
2011,08,02,01,23,15.20
2011,08,02,01,24,15.10
2011,08,02,01,25,15.10
2011,08,02,01,26,15.10
2011,08,02,01,27,15.10
2011,08,02,01,28,15.10
2011,08,02,01,29,15.10
2011,08,02,01,30,15.10
2011,08,02,01,31,15.10
2011,08,02,01,32,15.10
2011,08,02,01,33,15.10
2011,08,02,01,34,15.10
2011,08,02,01,35,15.10
2011,08,02,01,36,15.10
2011,08,02,01,37,15.00
2011,08,02,01,38,15.00
2011,08,02,01,39,15.00
2011,08,02,01,40,15.00
2011,08,02,01,41,15.00
2011,08,02,01,42,15.00
2011,08,02,01,43,14.90
2011,08,02,01,44,14.90
2011,08,02,01,45,14.90
2011,08,02,01,46,14.90
2011,08,02,01,47,14.90
2011,08,02,01,48,14.90
2011,08,02,01,49,14.90
2011,08,02,01,50,14.90
2011,08,02,01,51,14.90
2011,08,02,01,52,14.90
2011,08,02,01,53,14.80
2011,08,02,01,54,14.80
2011,08,02,01,55,14.80
2011,08,02,01,56,14.80
2011,08,02,01,57,14.80
2011,08,02,01,58,14.80
2011,08,02,01,59,14.80
2011,08,02,02,00,14.80
2011,08,02,02,01,14.80
2011,08,02,02,02,14.80
2011,08,02,02,03,14.80
2011,08,02,02,04,14.80
2011,08,02,02,05,14.80
2011,08,02,02,06,14.70
2011,08,02,02,07,14.70
2011,08,02,02,08,14.70
2011,08,02,02,09,14.70
2011,08,02,02,10,14.70
2011,08,02,02,11,14.60
2011,08,02,02,12,14.60
2011,08,02,02,13,14.60
2011,08,02,02,14,14.60
2011,08,02,02,15,14.60
2011,08,02,02,16,14.50
2011,08,02,02,17,14.50
2011,08,02,02,18,14.50
2011,08,02,02,19,14.50
2011,08,02,02,20,14.50
2011,08,02,02,21,14.40
2011,08,02,02,22,14.40
2011,08,02,02,23,14.40
2011,08,02,02,24,14.40
2011,08,02,02,25,14.40
2011,08,02,02,26,14.40
2011,08,02,02,27,14.40
2011,08,02,02,28,14.40
2011,08,02,02,29,14.40
2011,08,02,02,30,14.40
2011,08,02,02,31,14.40
2011,08,02,02,32,14.40
2011,08,02,02,33,14.40
2011,08,02,02,34,14.40
2011,08,02,02,35,14.40
2011,08,02,02,36,14.40
2011,08,02,02,37,14.40
2011,08,02,02,38,14.40
2011,08,02,02,39,14.40
2011,08,02,02,40,14.40
2011,08,02,02,41,14.40
2011,08,02,02,42,14.40
2011,08,02,02,43,14.40
2011,08,02,02,44,14.40
2011,08,02,02,45,14.40
2011,08,02,02,46,14.40
2011,08,02,02,47,14.40
2011,08,02,02,48,14.40
2011,08,02,02,49,14.40
2011,08,02,02,50,14.50
2011,08,02,02,51,14.50
2011,08,02,02,52,14.50
2011,08,02,02,53,14.50
2011,08,02,02,54,14.50
2011,08,02,02,55,14.50
2011,08,02,02,56,14.50
2011,08,02,02,57,14.50
2011,08,02,02,58,14.50
2011,08,02,02,59,14.50
2011,08,02,03,00,14.50
2011,08,02,03,01,14.50
2011,08,02,03,02,14.50
2011,08,02,03,03,14.50
2011,08,02,03,04,14.50
2011,08,02,03,05,14.50
2011,08,02,03,06,14.50
2011,08,02,03,07,14.50
2011,08,02,03,08,14.50
2011,08,02,03,09,14.60
2011,08,02,03,10,14.60
2011,08,02,03,11,14.60
2011,08,02,03,12,14.60
2011,08,02,03,13,14.60
2011,08,02,03,14,14.70
2011,08,02,03,15,14.70
2011,08,02,03,16,14.70
2011,08,02,03,17,14.70
2011,08,02,03,18,14.70
2011,08,02,03,19,14.70
2011,08,02,03,20,14.70
2011,08,02,03,21,14.70
2011,08,02,03,22,14.70
2011,08,02,03,23,14.70
2011,08,02,03,24,14.70
2011,08,02,03,25,14.70
2011,08,02,03,26,14.70
2011,08,02,03,27,14.70
2011,08,02,03,28,14.70
2011,08,02,03,29,14.70
2011,08,02,03,30,14.60
2011,08,02,03,31,14.70
2011,08,02,03,32,14.70
2011,08,02,03,33,14.70
2011,08,02,03,34,14.70
2011,08,02,03,35,14.70
2011,08,02,03,36,14.70
2011,08,02,03,37,14.70
2011,08,02,03,38,14.70
2011,08,02,03,39,14.70
2011,08,02,03,40,14.80
2011,08,02,03,41,14.80
2011,08,02,03,42,14.80
2011,08,02,03,43,14.80
2011,08,02,03,44,14.80
2011,08,02,03,45,14.80
2011,08,02,03,46,14.80
2011,08,02,03,47,14.80
2011,08,02,03,48,14.80
2011,08,02,03,49,14.80
2011,08,02,03,50,14.80
2011,08,02,03,51,14.80
2011,08,02,03,52,14.80
2011,08,02,03,53,14.80
2011,08,02,03,54,14.80
2011,08,02,03,55,14.80
2011,08,02,03,56,14.80
2011,08,02,03,57,14.80
2011,08,02,03,58,14.80
2011,08,02,03,59,14.80
2011,08,02,04,00,14.80
2011,08,02,04,01,14.80
2011,08,02,04,02,14.80
2011,08,02,04,03,14.80
2011,08,02,04,04,14.80
2011,08,02,04,05,14.80
2011,08,02,04,06,14.80
2011,08,02,04,07,14.80
2011,08,02,04,08,14.80
2011,08,02,04,09,14.80
2011,08,02,04,10,14.80
2011,08,02,04,11,14.80
2011,08,02,04,12,14.80
2011,08,02,04,13,14.80
2011,08,02,04,14,14.80
2011,08,02,04,15,14.70
2011,08,02,04,16,14.70
2011,08,02,04,17,14.70
2011,08,02,04,18,14.70
2011,08,02,04,19,14.70
2011,08,02,04,20,14.70
2011,08,02,04,21,14.70
2011,08,02,04,22,14.70
2011,08,02,04,23,14.70
2011,08,02,04,24,14.70
2011,08,02,04,25,14.70
2011,08,02,04,26,14.70
2011,08,02,04,27,14.70
2011,08,02,04,28,14.70
2011,08,02,04,29,14.70
2011,08,02,04,30,14.70
2011,08,02,04,31,14.80
2011,08,02,04,32,14.80
2011,08,02,04,33,14.80
2011,08,02,04,34,14.80
2011,08,02,04,35,14.80
2011,08,02,04,36,14.90
2011,08,02,04,37,14.90
2011,08,02,04,38,14.90
2011,08,02,04,39,14.90
2011,08,02,04,40,14.90
2011,08,02,04,41,14.90
2011,08,02,04,42,14.90
2011,08,02,04,43,14.90
2011,08,02,04,44,14.90
2011,08,02,04,45,14.90
2011,08,02,04,46,14.90
2011,08,02,04,47,14.90
2011,08,02,04,48,14.90
2011,08,02,04,49,14.90
2011,08,02,04,50,14.90
2011,08,02,04,51,14.90
2011,08,02,04,52,14.80
2011,08,02,04,53,14.80
2011,08,02,04,54,14.80
2011,08,02,04,55,14.80
2011,08,02,04,56,14.80
2011,08,02,04,57,14.80
2011,08,02,04,58,14.80
2011,08,02,04,59,14.80
2011,08,02,05,00,14.80
2011,08,02,05,01,14.80
2011,08,02,05,02,14.80
2011,08,02,05,03,14.80
2011,08,02,05,04,14.80
2011,08,02,05,05,14.80
2011,08,02,05,06,14.80
2011,08,02,05,07,14.80
2011,08,02,05,08,14.80
2011,08,02,05,09,14.80
2011,08,02,05,10,14.80
2011,08,02,05,11,14.80
2011,08,02,05,12,14.80
2011,08,02,05,13,14.80
2011,08,02,05,14,14.80
2011,08,02,05,15,14.80
2011,08,02,05,16,14.80
2011,08,02,05,17,14.80
2011,08,02,05,18,14.80
2011,08,02,05,19,14.80
2011,08,02,05,20,14.80
2011,08,02,05,21,14.80
2011,08,02,05,22,14.80
2011,08,02,05,23,14.80
2011,08,02,05,24,14.80
2011,08,02,05,25,14.80
2011,08,02,05,26,14.80
2011,08,02,05,27,14.80
2011,08,02,05,28,14.80
2011,08,02,05,29,14.80
2011,08,02,05,30,14.80
2011,08,02,05,31,14.80
2011,08,02,05,32,14.80
2011,08,02,05,33,14.80
2011,08,02,05,34,14.80
2011,08,02,05,35,14.80
2011,08,02,05,36,14.80
2011,08,02,05,37,14.80
2011,08,02,05,38,14.80
2011,08,02,05,39,14.90
2011,08,02,05,40,14.90
2011,08,02,05,41,14.90
2011,08,02,05,42,14.90
2011,08,02,05,43,14.90
2011,08,02,05,44,14.90
2011,08,02,05,45,14.90
2011,08,02,05,46,14.90
2011,08,02,05,47,14.90
2011,08,02,05,48,14.90
2011,08,02,05,49,14.90
2011,08,02,05,50,14.90
2011,08,02,05,51,14.90
2011,08,02,05,52,14.90
2011,08,02,05,53,14.90
2011,08,02,05,54,14.90
2011,08,02,05,55,14.80
2011,08,02,05,56,14.80
2011,08,02,05,57,14.80
2011,08,02,05,58,14.80
2011,08,02,05,59,14.80
2011,08,02,06,00,14.80
2011,08,02,06,01,14.80
2011,08,02,06,02,14.80
2011,08,02,06,03,14.80
2011,08,02,06,04,14.80
2011,08,02,06,05,14.80
2011,08,02,06,06,14.80
2011,08,02,06,07,14.80
2011,08,02,06,08,14.80
2011,08,02,06,09,14.80
2011,08,02,06,10,14.80
2011,08,02,06,11,14.80
2011,08,02,06,12,14.80
2011,08,02,06,13,14.80
2011,08,02,06,14,14.90
2011,08,02,06,15,14.90
2011,08,02,06,16,14.90
2011,08,02,06,17,14.90
2011,08,02,06,18,14.90
2011,08,02,06,19,15.00
2011,08,02,06,20,15.00
2011,08,02,06,21,15.00
2011,08,02,06,22,15.00
2011,08,02,06,23,15.00
2011,08,02,06,24,15.00
2011,08,02,06,25,15.00
2011,08,02,06,26,15.00
2011,08,02,06,27,15.00
2011,08,02,06,28,15.00
2011,08,02,06,29,15.00
2011,08,02,06,30,15.00
2011,08,02,06,31,15.00
2011,08,02,06,32,15.00
2011,08,02,06,33,15.00
2011,08,02,06,34,15.00
2011,08,02,06,35,15.00
2011,08,02,06,36,15.00
2011,08,02,06,37,15.00
2011,08,02,06,38,15.00
2011,08,02,06,39,15.00
2011,08,02,06,40,15.00
2011,08,02,06,41,15.00
2011,08,02,06,42,15.00
2011,08,02,06,43,14.90
2011,08,02,06,44,14.90
2011,08,02,06,45,14.90
2011,08,02,06,46,14.90
2011,08,02,06,47,14.90
2011,08,02,06,48,14.90
2011,08,02,06,49,14.90
2011,08,02,06,50,14.90
2011,08,02,06,51,14.90
2011,08,02,06,52,14.90
2011,08,02,06,53,14.90
2011,08,02,06,54,15.00
2011,08,02,06,55,15.00
2011,08,02,06,56,15.00
2011,08,02,06,57,15.00
2011,08,02,06,58,15.00
2011,08,02,06,59,15.00
2011,08,02,07,00,15.00
2011,08,02,07,01,15.10
2011,08,02,07,02,15.10
2011,08,02,07,03,15.10
2011,08,02,07,04,15.10
2011,08,02,07,05,15.20
2011,08,02,07,06,15.30
2011,08,02,07,07,15.30
2011,08,02,07,08,15.30
2011,08,02,07,09,15.30
2011,08,02,07,10,15.40
2011,08,02,07,11,15.40
2011,08,02,07,12,15.50
2011,08,02,07,13,15.50
2011,08,02,07,14,15.50
2011,08,02,07,15,15.60
2011,08,02,07,16,15.60
2011,08,02,07,17,15.70
2011,08,02,07,18,15.70
2011,08,02,07,19,15.80
2011,08,02,07,20,15.80
2011,08,02,07,21,15.80
2011,08,02,07,22,15.80
2011,08,02,07,23,15.90
2011,08,02,07,24,15.90
2011,08,02,07,25,15.90
2011,08,02,07,26,16.10
2011,08,02,07,27,16.10
2011,08,02,07,28,16.10
2011,08,02,07,29,16.10
2011,08,02,07,30,16.10
2011,08,02,07,31,16.10
2011,08,02,07,32,16.20
2011,08,02,07,33,16.20
2011,08,02,07,34,16.20
2011,08,02,07,35,16.20
2011,08,02,07,36,16.20
2011,08,02,07,37,16.30
2011,08,02,07,38,16.30
2011,08,02,07,39,16.30
2011,08,02,07,40,16.30
2011,08,02,07,41,16.30
2011,08,02,07,42,16.40
2011,08,02,07,43,16.40
2011,08,02,07,44,16.40
2011,08,02,07,45,16.40
2011,08,02,07,46,16.40
2011,08,02,07,47,16.50
2011,08,02,07,48,16.60
2011,08,02,07,49,16.60
2011,08,02,07,50,16.60
2011,08,02,07,51,16.70
2011,08,02,07,52,16.70
2011,08,02,07,53,16.70
2011,08,02,07,54,16.70
2011,08,02,07,55,16.70
2011,08,02,07,56,16.80
2011,08,02,07,57,16.80
2011,08,02,07,58,16.90
2011,08,02,07,59,16.90
2011,08,02,08,00,17.00
2011,08,02,08,01,17.00
2011,08,02,08,02,17.10
2011,08,02,08,03,17.10
2011,08,02,08,04,17.20
2011,08,02,08,05,17.30
2011,08,02,08,06,17.30
2011,08,02,08,07,17.30
2011,08,02,08,08,17.40
2011,08,02,08,09,17.50
2011,08,02,08,10,17.50
2011,08,02,08,11,17.60
2011,08,02,08,12,17.70
2011,08,02,08,13,17.80
2011,08,02,08,14,17.90
2011,08,02,08,15,17.90
2011,08,02,08,16,18.00
2011,08,02,08,17,18.10
2011,08,02,08,18,18.10
2011,08,02,08,19,18.20
2011,08,02,08,20,18.20
2011,08,02,08,21,18.20
2011,08,02,08,22,18.20
2011,08,02,08,23,18.30
2011,08,02,08,24,18.30
2011,08,02,08,25,18.40
2011,08,02,08,26,18.40
2011,08,02,08,27,18.40
2011,08,02,08,28,18.40
2011,08,02,08,29,18.50
2011,08,02,08,30,18.50
2011,08,02,08,31,18.50
2011,08,02,08,32,18.60
2011,08,02,08,33,18.60
2011,08,02,08,34,18.70
2011,08,02,08,35,18.80
2011,08,02,08,36,18.90
2011,08,02,08,37,18.90
2011,08,02,08,38,19.10
2011,08,02,08,39,19.30
2011,08,02,08,40,19.40
2011,08,02,08,41,19.40
2011,08,02,08,42,19.50
2011,08,02,08,43,19.50
2011,08,02,08,44,19.60
2011,08,02,08,45,19.60
2011,08,02,08,46,19.70
2011,08,02,08,47,19.70
2011,08,02,08,48,19.70
2011,08,02,08,49,19.80
2011,08,02,08,50,19.80
2011,08,02,08,51,19.80
2011,08,02,08,52,19.90
2011,08,02,08,53,19.90
2011,08,02,08,54,19.80
2011,08,02,08,55,19.80
2011,08,02,08,56,19.80
2011,08,02,08,57,19.80
2011,08,02,08,58,19.80
2011,08,02,08,59,19.90
2011,08,02,09,00,19.90
2011,08,02,09,01,19.90
2011,08,02,09,02,19.90
2011,08,02,09,03,19.90
2011,08,02,09,04,19.90
2011,08,02,09,05,19.90
2011,08,02,09,06,19.90
2011,08,02,09,07,19.90
2011,08,02,09,08,19.90
2011,08,02,09,09,19.90
2011,08,02,09,10,19.90
2011,08,02,09,11,20.10
2011,08,02,09,12,20.10
2011,08,02,09,13,20.10
2011,08,02,09,14,20.10
2011,08,02,09,15,20.10
2011,08,02,09,16,20.10
2011,08,02,09,17,20.20
2011,08,02,09,18,20.20
2011,08,02,09,19,20.20
2011,08,02,09,20,20.20
2011,08,02,09,21,20.20
2011,08,02,09,22,20.20
2011,08,02,09,23,20.20
2011,08,02,09,24,20.20
2011,08,02,09,25,20.20
2011,08,02,09,26,20.20
2011,08,02,09,27,20.20
2011,08,02,09,28,20.20
2011,08,02,09,29,20.20
2011,08,02,09,30,20.20
2011,08,02,09,31,20.20
2011,08,02,09,32,20.20
2011,08,02,09,33,20.20
2011,08,02,09,34,20.20
2011,08,02,09,35,20.20
2011,08,02,09,36,20.20
2011,08,02,09,37,20.20
2011,08,02,09,38,20.20
2011,08,02,09,39,20.20
2011,08,02,09,40,20.10
2011,08,02,09,41,20.10
2011,08,02,09,42,20.00
2011,08,02,09,43,19.90
2011,08,02,09,44,19.90
2011,08,02,09,45,19.80
2011,08,02,09,46,19.80
2011,08,02,09,47,19.80
2011,08,02,09,48,19.80
2011,08,02,09,49,19.90
2011,08,02,09,50,19.90
2011,08,02,09,51,20.00
2011,08,02,09,52,20.10
2011,08,02,09,53,20.20
2011,08,02,09,54,20.30
2011,08,02,09,55,20.40
2011,08,02,09,56,20.50
2011,08,02,09,57,20.60
2011,08,02,09,58,20.60
2011,08,02,09,59,20.60
2011,08,02,10,00,20.60
2011,08,02,10,01,20.70
2011,08,02,10,02,20.70
2011,08,02,10,03,20.60
2011,08,02,10,04,20.60
2011,08,02,10,05,20.60
2011,08,02,10,06,20.70
2011,08,02,10,07,20.70
2011,08,02,10,08,20.80
2011,08,02,10,09,20.80
2011,08,02,10,10,20.90
2011,08,02,10,11,21.00
2011,08,02,10,12,21.10
2011,08,02,10,13,21.20
2011,08,02,10,14,21.20
2011,08,02,10,15,21.30
2011,08,02,10,16,21.30
2011,08,02,10,17,21.30
2011,08,02,10,18,21.30
2011,08,02,10,19,21.30
2011,08,02,10,20,21.30
2011,08,02,10,21,21.30
2011,08,02,10,22,21.30
2011,08,02,10,23,21.30
2011,08,02,10,24,21.30
2011,08,02,10,25,21.30
2011,08,02,10,26,21.20
2011,08,02,10,27,21.20
2011,08,02,10,28,21.20
2011,08,02,10,29,21.20
2011,08,02,10,30,21.30
2011,08,02,10,31,21.30
2011,08,02,10,32,21.30
2011,08,02,10,33,21.30
2011,08,02,10,34,21.30
2011,08,02,10,35,21.30
2011,08,02,10,36,21.30
2011,08,02,10,37,21.20
2011,08,02,10,38,21.10
2011,08,02,10,39,21.00
2011,08,02,10,40,21.00
2011,08,02,10,41,20.90
2011,08,02,10,42,20.90
2011,08,02,10,43,20.80
2011,08,02,10,44,20.80
2011,08,02,10,45,20.80
2011,08,02,10,46,20.80
2011,08,02,10,47,20.80
2011,08,02,10,48,20.80
2011,08,02,10,49,20.90
2011,08,02,10,50,21.00
2011,08,02,10,51,21.00
2011,08,02,10,52,21.10
2011,08,02,10,53,21.10
2011,08,02,10,54,21.20
2011,08,02,10,55,21.30
2011,08,02,10,56,21.30
2011,08,02,10,57,21.40
2011,08,02,10,58,21.50
2011,08,02,10,59,21.60
2011,08,02,11,00,21.60
2011,08,02,11,01,21.70
2011,08,02,11,02,21.80
2011,08,02,11,03,21.80
2011,08,02,11,04,21.80
2011,08,02,11,05,21.70
2011,08,02,11,06,21.70
2011,08,02,11,07,21.70
2011,08,02,11,08,21.70
2011,08,02,11,09,21.80
2011,08,02,11,10,21.80
2011,08,02,11,11,21.90
2011,08,02,11,12,21.90
2011,08,02,11,13,21.80
2011,08,02,11,14,21.80
2011,08,02,11,15,21.80
2011,08,02,11,16,21.80
2011,08,02,11,17,21.80
2011,08,02,11,18,21.80
2011,08,02,11,19,21.90
2011,08,02,11,20,22.00
2011,08,02,11,21,22.00
2011,08,02,11,22,22.00
2011,08,02,11,23,22.10
2011,08,02,11,24,22.20
2011,08,02,11,25,22.20
2011,08,02,11,26,22.30
2011,08,02,11,27,22.30
2011,08,02,11,28,22.40
2011,08,02,11,29,22.40
2011,08,02,11,30,22.50
2011,08,02,11,31,22.50
2011,08,02,11,32,22.60
2011,08,02,11,33,22.70
2011,08,02,11,34,22.80
2011,08,02,11,35,22.80
2011,08,02,11,36,22.90
2011,08,02,11,37,22.90
2011,08,02,11,38,22.90
2011,08,02,11,39,22.90
2011,08,02,11,40,22.80
2011,08,02,11,41,22.80
2011,08,02,11,42,22.70
2011,08,02,11,43,22.70
2011,08,02,11,44,22.50
2011,08,02,11,45,22.40
2011,08,02,11,46,22.40
2011,08,02,11,47,22.40
2011,08,02,11,48,22.50
2011,08,02,11,49,22.60
2011,08,02,11,50,22.70
2011,08,02,11,51,22.80
2011,08,02,11,52,22.90
2011,08,02,11,53,22.90
2011,08,02,11,54,22.90
2011,08,02,11,55,23.00
2011,08,02,11,56,23.00
2011,08,02,11,57,22.90
2011,08,02,11,58,22.90
2011,08,02,11,59,22.90
2011,08,02,12,00,22.90
2011,08,02,12,01,22.90
2011,08,02,12,02,22.90
2011,08,02,12,03,22.90
2011,08,02,12,04,23.10
2011,08,02,12,05,23.20
2011,08,02,12,06,23.20
2011,08,02,12,07,23.30
2011,08,02,12,08,23.30
2011,08,02,12,09,23.20
2011,08,02,12,10,23.30
2011,08,02,12,11,23.30
2011,08,02,12,12,23.30
2011,08,02,12,13,23.30
2011,08,02,12,14,23.30
2011,08,02,12,15,23.30
2011,08,02,12,16,23.40
2011,08,02,12,17,23.40
2011,08,02,12,18,23.60
2011,08,02,12,19,23.70
2011,08,02,12,20,23.70
2011,08,02,12,21,23.70
2011,08,02,12,22,23.70
2011,08,02,12,23,23.70
2011,08,02,12,24,23.70
2011,08,02,12,25,23.70
2011,08,02,12,26,23.60
2011,08,02,12,27,23.60
2011,08,02,12,28,23.40
2011,08,02,12,29,23.50
2011,08,02,12,30,23.60
2011,08,02,12,31,23.80
2011,08,02,12,32,23.80
2011,08,02,12,33,23.70
2011,08,02,12,34,23.70
2011,08,02,12,35,23.80
2011,08,02,12,36,23.90
2011,08,02,12,37,23.90
2011,08,02,12,38,23.70
2011,08,02,12,39,23.70
2011,08,02,12,40,23.70
2011,08,02,12,41,23.70
2011,08,02,12,42,23.60
2011,08,02,12,43,23.60
2011,08,02,12,44,23.50
2011,08,02,12,45,23.40
2011,08,02,12,46,23.50
2011,08,02,12,47,23.50
2011,08,02,12,48,23.40
2011,08,02,12,49,23.40
2011,08,02,12,50,23.30
2011,08,02,12,51,23.40
2011,08,02,12,52,23.40
2011,08,02,12,53,23.60
2011,08,02,12,54,23.80
2011,08,02,12,55,23.90
2011,08,02,12,56,24.00
2011,08,02,12,57,24.10
2011,08,02,12,58,24.10
2011,08,02,12,59,24.30
2011,08,02,13,00,24.40
2011,08,02,13,01,24.40
2011,08,02,13,02,24.50
2011,08,02,13,03,24.60
2011,08,02,13,04,24.60
2011,08,02,13,05,24.50
2011,08,02,13,06,24.40
2011,08,02,13,07,24.40
2011,08,02,13,08,24.40
2011,08,02,13,09,24.30
2011,08,02,13,10,24.30
2011,08,02,13,11,24.40
2011,08,02,13,12,24.50
2011,08,02,13,13,24.60
2011,08,02,13,14,24.70
2011,08,02,13,15,24.60
2011,08,02,13,16,24.70
2011,08,02,13,17,24.70
2011,08,02,13,18,24.70
2011,08,02,13,19,24.70
2011,08,02,13,20,24.80
2011,08,02,13,21,24.80
2011,08,02,13,22,24.80
2011,08,02,13,23,24.90
2011,08,02,13,24,24.90
2011,08,02,13,25,24.90
2011,08,02,13,26,24.70
2011,08,02,13,27,24.60
2011,08,02,13,28,24.60
2011,08,02,13,29,24.50
2011,08,02,13,30,24.40
2011,08,02,13,31,24.20
2011,08,02,13,32,24.10
2011,08,02,13,33,24.10
2011,08,02,13,34,24.10
2011,08,02,13,35,24.20
2011,08,02,13,36,24.30
2011,08,02,13,37,24.40
2011,08,02,13,38,24.50
2011,08,02,13,39,24.60
2011,08,02,13,40,24.60
2011,08,02,13,41,24.60
2011,08,02,13,42,24.70
2011,08,02,13,43,24.70
2011,08,02,13,44,24.70
2011,08,02,13,45,24.70
2011,08,02,13,46,24.70
2011,08,02,13,47,24.70
2011,08,02,13,48,24.70
2011,08,02,13,49,24.70
2011,08,02,13,50,24.70
2011,08,02,13,51,24.70
2011,08,02,13,52,24.80
2011,08,02,13,53,24.90
2011,08,02,13,54,25.00
2011,08,02,13,55,25.00
2011,08,02,13,56,25.10
2011,08,02,13,57,25.20
2011,08,02,13,58,25.40
2011,08,02,13,59,25.40
2011,08,02,14,00,25.30
2011,08,02,14,01,25.30
2011,08,02,14,02,25.20
2011,08,02,14,03,25.20
2011,08,02,14,04,25.10
2011,08,02,14,05,25.10
2011,08,02,14,06,25.10
2011,08,02,14,07,25.10
2011,08,02,14,08,25.00
2011,08,02,14,09,25.00
2011,08,02,14,10,25.00
2011,08,02,14,11,25.00
2011,08,02,14,12,24.90
2011,08,02,14,13,24.90
2011,08,02,14,14,24.80
2011,08,02,14,15,24.70
2011,08,02,14,16,24.60
2011,08,02,14,17,24.50
2011,08,02,14,18,24.50
2011,08,02,14,19,24.40
2011,08,02,14,20,24.50
2011,08,02,14,21,24.50
2011,08,02,14,22,24.50
2011,08,02,14,23,24.50
2011,08,02,14,24,24.50
2011,08,02,14,25,24.60
2011,08,02,14,26,24.70
2011,08,02,14,27,24.80
2011,08,02,14,28,24.90
2011,08,02,14,29,25.10
2011,08,02,14,30,25.20
2011,08,02,14,31,25.20
2011,08,02,14,32,25.10
2011,08,02,14,33,25.10
2011,08,02,14,34,25.00
2011,08,02,14,35,25.00
2011,08,02,14,36,25.10
2011,08,02,14,37,25.10
2011,08,02,14,38,25.20
2011,08,02,14,39,25.20
2011,08,02,14,40,25.20
2011,08,02,14,41,25.20
2011,08,02,14,42,25.10
2011,08,02,14,43,25.00
2011,08,02,14,44,24.80
2011,08,02,14,45,24.40
2011,08,02,14,46,24.20
2011,08,02,14,47,24.00
2011,08,02,14,48,23.80
2011,08,02,14,49,23.60
2011,08,02,14,50,23.40
2011,08,02,14,51,23.30
2011,08,02,14,52,23.10
2011,08,02,14,53,23.00
2011,08,02,14,54,22.90
2011,08,02,14,55,23.00
2011,08,02,14,56,23.10
2011,08,02,14,57,23.10
2011,08,02,14,58,23.20
2011,08,02,14,59,23.20
2011,08,02,15,00,23.10
2011,08,02,15,01,23.10
2011,08,02,15,02,23.20
2011,08,02,15,03,23.30
2011,08,02,15,04,23.30
2011,08,02,15,05,23.40
2011,08,02,15,06,23.40
2011,08,02,15,07,23.50
2011,08,02,15,08,23.70
2011,08,02,15,09,23.80
2011,08,02,15,10,23.90
2011,08,02,15,11,24.00
2011,08,02,15,12,24.10
2011,08,02,15,13,24.10
2011,08,02,15,14,24.10
2011,08,02,15,15,24.10
2011,08,02,15,16,24.20
2011,08,02,15,17,24.20
2011,08,02,15,18,24.30
2011,08,02,15,19,24.40
2011,08,02,15,20,24.40
2011,08,02,15,21,24.40
2011,08,02,15,22,24.50
2011,08,02,15,23,24.50
2011,08,02,15,24,24.40
2011,08,02,15,25,24.40
2011,08,02,15,26,24.30
2011,08,02,15,27,24.30
2011,08,02,15,28,24.20
2011,08,02,15,29,24.10
2011,08,02,15,30,24.00
2011,08,02,15,31,23.90
2011,08,02,15,32,23.80
2011,08,02,15,33,23.80
2011,08,02,15,34,23.70
2011,08,02,15,35,23.70
2011,08,02,15,36,23.60
2011,08,02,15,37,23.60
2011,08,02,15,38,23.60
2011,08,02,15,39,23.60
2011,08,02,15,40,23.70
2011,08,02,15,41,23.70
2011,08,02,15,42,23.70
2011,08,02,15,43,23.70
2011,08,02,15,44,23.80
2011,08,02,15,45,23.80
2011,08,02,15,46,23.80
2011,08,02,15,47,23.90
2011,08,02,15,48,23.90
2011,08,02,15,49,23.90
2011,08,02,15,50,23.90
2011,08,02,15,51,23.80
2011,08,02,15,52,23.90
2011,08,02,15,53,23.90
2011,08,02,15,54,24.00
2011,08,02,15,55,24.10
2011,08,02,15,56,24.10
2011,08,02,15,57,24.10
2011,08,02,15,58,24.20
2011,08,02,15,59,24.30
2011,08,02,16,00,24.20
2011,08,02,16,01,24.20
2011,08,02,16,02,24.20
2011,08,02,16,03,24.20
2011,08,02,16,04,24.20
2011,08,02,16,05,24.20
2011,08,02,16,06,24.10
2011,08,02,16,07,24.10
2011,08,02,16,08,24.10
2011,08,02,16,09,24.10
2011,08,02,16,10,24.00
2011,08,02,16,11,23.80
2011,08,02,16,12,23.60
2011,08,02,16,13,23.30
2011,08,02,16,14,23.10
2011,08,02,16,15,22.90
2011,08,02,16,16,22.60
2011,08,02,16,17,22.50
2011,08,02,16,18,22.40
2011,08,02,16,19,22.40
2011,08,02,16,20,22.40
2011,08,02,16,21,22.50
2011,08,02,16,22,22.60
2011,08,02,16,23,22.70
2011,08,02,16,24,22.80
2011,08,02,16,25,22.80
2011,08,02,16,26,22.70
2011,08,02,16,27,22.60
2011,08,02,16,28,22.50
2011,08,02,16,29,22.40
2011,08,02,16,30,22.40
2011,08,02,16,31,22.50
2011,08,02,16,32,22.50
2011,08,02,16,33,22.50
2011,08,02,16,34,22.40
2011,08,02,16,35,22.40
2011,08,02,16,36,22.30
2011,08,02,16,37,22.30
2011,08,02,16,38,22.30
2011,08,02,16,39,22.30
2011,08,02,16,40,22.40
2011,08,02,16,41,22.40
2011,08,02,16,42,22.40
2011,08,02,16,43,22.40
2011,08,02,16,44,22.50
2011,08,02,16,45,22.50
2011,08,02,16,46,22.50
2011,08,02,16,47,22.60
2011,08,02,16,48,22.60
2011,08,02,16,49,22.60
2011,08,02,16,50,22.50
2011,08,02,16,51,22.50
2011,08,02,16,52,22.50
2011,08,02,16,53,22.50
2011,08,02,16,54,22.50
2011,08,02,16,55,22.50
2011,08,02,16,56,22.40
2011,08,02,16,57,22.40
2011,08,02,16,58,22.40
2011,08,02,16,59,22.50
2011,08,02,17,00,22.50
2011,08,02,17,01,22.50
2011,08,02,17,02,22.50
2011,08,02,17,03,22.50
2011,08,02,17,04,22.40
2011,08,02,17,05,22.40
2011,08,02,17,06,22.40
2011,08,02,17,07,22.40
2011,08,02,17,08,22.40
2011,08,02,17,09,22.30
2011,08,02,17,10,22.30
2011,08,02,17,11,22.30
2011,08,02,17,12,22.30
2011,08,02,17,13,22.30
2011,08,02,17,14,22.40
2011,08,02,17,15,22.40
2011,08,02,17,16,22.40
2011,08,02,17,17,22.40
2011,08,02,17,18,22.40
2011,08,02,17,19,22.40